This demonstration page uses our WeatherBlox Daily Observations layout. Learn more.

Hourly Observations for September 1, 2018

Temp ( °F °C ) Dew Point ( °F °C ) Humidity (%) Winds ( mph kmh ) Pressure ( in mb ) Visibility ( mi km ) Precip ( " mm )
12:15 am 00:15 Partly Cloudy with Nearby Thunderstorms 74 23.6 73 23 96 96 Calm 29.74 1007 10 16.09344 0 0
12:35 am 00:35 Mostly Cloudy with Thunderstorms 74 23.4 73 23 98 98 NW 9 15 29.77 1008 10 16.09344 0 0
12:55 am 00:55 Cloudy with Heavy Thunderstorms 67 19.4 64 17.5 89 89 WNW 31 50 29.85 1011 4 6.437376 0.07 1.778
1:15 am 01:15 Cloudy with Heavy Thunderstorms 65 18.1 64 17.9 99 99 Calm 29.97 1015 1.75 2.816352 0.48 12.192
1:35 am 01:35 Cloudy 65 18.1 64 17.9 99 99 N 12 19 29.91 1013 7 11.265408 0.61 15.494
1:55 am 01:55 Mostly Cloudy 65 18.3 64 18 98 98 NNE 8 13 29.88 1012 10 16.09344 0.61 15.494
2:15 am 02:15 Cloudy with Light Rain 65 18.5 64 18 97 97 NNE 9 15 29.85 1011 10 16.09344 0.01 0.254
2:35 am 02:35 Cloudy with Light Rain 65 18.5 64 18 97 97 NNE 10 17 29.8 1009 10 16.09344 0.03 0.762
2:55 am 02:55 Partly Cloudy 65 18.6 64 17.5 93 93 NNE 9 15 29.77 1008 10 16.09344 0.03 0.762
3:15 am 03:15 Clear 65 18.5 64 17.5 94 94 NNE 3 6 29.77 1008 10 16.09344 0 0
3:35 am 03:35 Partly Cloudy 65 18.5 64 17.6 95 95 Calm 29.74 1007 10 16.09344 0 0
3:55 am 03:55 Partly Cloudy 66 19 63 17.4 91 91 Calm 29.77 1008 10 16.09344 0 0
4:15 am 04:15 Clear 66 18.7 64 18 96 96 S 3 6 29.77 1008 10 16.09344 0 0
4:35 am 04:35 Clear 66 18.8 64 17.6 93 93 S 6 9 29.8 1009 10 16.09344 0 0
4:55 am 04:55 Partly Cloudy with Light Rain 67 19.3 63 17.3 88 88 S 15 24 29.8 1009 10 16.09344 0 0
5:15 am 05:15 Cloudy with Light Rain 68 20.1 62 16.9 82 82 SW 3 6 29.83 1010 10 16.09344 0.01 0.254
5:35 am 05:35 Cloudy with Light Rain 67 19.5 63 17.2 87 87 SSW 12 19 29.83 1010 10 16.09344 0.01 0.254
5:55 am 05:55 Cloudy with Light Rain 67 19.3 64 17.5 89 89 SSW 13 20 29.83 1010 10 16.09344 0.01 0.254
6:15 am 06:15 Mostly Cloudy with Light Drizzle 70 21.1 62 16.4 75 75 S 13 20 29.8 1009 10 16.09344 0 0
6:35 am 06:35 Partly Cloudy 69 20.8 61 16.3 76 76 SSW 7 11 29.8 1009 10 16.09344 0 0
6:55 am 06:55 Partly Cloudy 68 20.2 62 16.9 81 81 S 10 17 29.8 1009 10 16.09344 0 0
7:15 am 07:15 Mostly Cloudy 67 19.7 63 17.2 86 86 S 13 20 29.8 1009 10 16.09344 0 0
7:35 am 07:35 Mostly Cloudy with Light Rain 68 19.8 63 17.2 85 85 S 7 11 29.8 1009 10 16.09344 0.01 0.254
7:55 am 07:55 Partly Cloudy 67 19.6 63 17.2 86 86 N 3 6 29.83 1010 10 16.09344 0.01 0.254
8:15 am 08:15 Sunny 67 19.6 63 17.1 86 86 Calm 29.83 1010 10 16.09344 0 0
8:35 am 08:35 Sunny 67 19.7 64 17.5 87 87 N 6 9 29.83 1010 10 16.09344 0 0
8:55 am 08:55 Sunny 69 20.4 63 17 81 81 N 8 13 29.83 1010 10 16.09344 0 0
9:15 am 09:15 Sunny 71 21.4 63 17.4 78 78 NNW 5 7 29.85 1011 10 16.09344 0 0
9:35 am 09:35 Partly Cloudy 71 21.5 64 17.6 79 79 NNW 3 6 29.85 1011 10 16.09344 0 0
9:55 am 09:55 Mostly Cloudy 71 21.6 65 18.2 81 81 NNW 3 6 29.85 1011 10 16.09344 0 0
10:15 am 10:15 Cloudy with Nearby Thunderstorms 72 22 65 18.6 81 81 SE 6 9 29.88 1012 10 16.09344 0 0
10:35 am 10:35 Cloudy 72 22 66 19.1 84 84 SE 9 15 29.88 1012 10 16.09344 0 0
10:55 am 10:55 Cloudy 72 22 66 18.8 82 82 E 8 13 29.88 1012 10 16.09344 0 0
11:15 am 11:15 Cloudy 70 21.3 65 18.3 83 83 ENE 6 9 29.88 1012 10 16.09344 0 0
11:35 am 11:35 Cloudy 70 21.1 65 18.6 86 86 E 5 7 29.88 1012 10 16.09344 0 0
11:55 am 11:55 Cloudy 70 21 67 19.3 90 90 SSE 3 6 29.88 1012 10 16.09344 0 0
12:15 pm 12:15 Cloudy with Light Rain 69 20.8 65 18.1 85 85 ESE 7 11 29.88 1012 7 11.265408 0 0
12:35 pm 12:35 Cloudy with Light Rain 69 20.6 64 18 85 85 ENE 14 22 29.83 1010 10 16.09344 0.01 0.254
12:55 pm 12:55 Partly Cloudy 72 22 66 18.8 82 82 E 8 13 29.83 1010 10 16.09344 0.01 0.254
1:15 pm 13:15 Sunny 74 23.3 67 19.3 78 78 E 6 9 29.8 1009 10 16.09344 0 0
1:35 pm 13:35 Sunny 78 25.4 66 18.8 67 67 E 9 15 29.8 1009 10 16.09344 0 0
1:55 pm 13:55 Sunny 79 26 65 18.4 63 63 E 8 13 29.77 1008 10 16.09344 0 0
2:15 pm 14:15 Sunny 80 26.6 64 18 59 59 SE 8 13 29.8 1009 10 16.09344 0 0
2:35 pm 14:35 Sunny 81 27.4 64 17.7 55 55 SE 10 17 29.8 1009 10 16.09344 0 0
2:55 pm 14:55 Sunny 80 26.6 66 18.8 62 62 SSE 8 13 29.8 1009 10 16.09344 0 0
3:15 pm 15:15 Sunny 81 27 65 18.2 59 59 SE 8 13 29.8 1009 10 16.09344 0 0
3:35 pm 15:35 Partly Cloudy 81 27.2 64 17.9 57 57 SE 9 15 29.8 1009 10 16.09344 0 0
3:55 pm 15:55 Partly Cloudy 81 27.3 63 17.2 54 54 SE 9 15 29.8 1009 10 16.09344 0 0
4:15 pm 16:15 Sunny 81 27.4 65 18.2 57 57 SE 8 13 29.77 1008 10 16.09344 0 0
4:35 pm 16:35 Sunny with Nearby Thunderstorms 81 27.2 67 19.4 62 62 SE 6 9 29.77 1008 10 16.09344 0 0
4:55 pm 16:55 Partly Cloudy 79 26.2 68 20 69 69 SSE 8 13 29.77 1008 10 16.09344 0 0
5:15 pm 17:15 Mostly Cloudy with Light Rain 78 25.4 69 20.4 74 74 SSE 9 15 29.8 1009 10 16.09344 0 0
5:35 pm 17:35 Cloudy 76 24.5 69 20.5 78 78 SE 12 19 29.77 1008 10 16.09344 0 0
5:55 pm 17:55 Mostly Cloudy with Light Drizzle 76 24.5 68 20 76 76 SSE 14 22 29.77 1008 10 16.09344 0 0
6:15 pm 18:15 Mostly Cloudy with Light Rain 75 23.7 67 19.4 77 77 SSE 16 26 29.74 1007 10 16.09344 0 0
6:35 pm 18:35 Partly Cloudy 74 23.5 65 18.5 74 74 ESE 7 11 29.74 1007 10 16.09344 0 0
6:55 pm 18:55 Sunny 74 23.2 65 18.2 74 74 NNE 3 6 29.74 1007 10 16.09344 0 0
7:15 pm 19:15 Sunny with Thunderstorms 74 23.4 66 18.8 75 75 Calm 29.74 1007 10 16.09344 0 0
7:35 pm 19:35 Sunny 73 22.8 66 18.8 78 78 SSE 7 11 29.77 1008 10 16.09344 0 0
7:55 pm 19:55 Partly Cloudy 72 22 65 18.5 81 81 S 10 17 29.77 1008 10 16.09344 0 0
8:15 pm 20:15 Mostly Cloudy 70 21.2 64 18 82 82 SSE 10 17 29.8 1009 10 16.09344 0 0
8:35 pm 20:35 Partly Cloudy 70 21.2 63 17.2 78 78 SE 14 22 29.8 1009 10 16.09344 0 0
8:55 pm 20:55 Mostly Cloudy 70 21.2 62 16.8 76 76 SE 15 24 29.8 1009 10 16.09344 0 0
9:15 pm 21:15 Cloudy 71 21.5 62 16.6 74 74 SE 13 20 29.8 1009 10 16.09344 0 0
9:35 pm 21:35 Partly Cloudy 70 21.2 64 17.6 80 80 SE 17 28 29.8 1009 10 16.09344 0 0
9:55 pm 21:55 Partly Cloudy 69 20.7 64 18 85 85 SE 12 19 29.83 1010 10 16.09344 0 0
10:15 pm 22:15 Mostly Cloudy 69 20.5 64 17.6 84 84 SE 12 19 29.85 1011 10 16.09344 0 0
10:35 pm 22:35 Cloudy with Nearby Thunderstorms 68 20.2 64 17.5 85 85 SE 9 15 29.83 1010 10 16.09344 0 0
10:55 pm 22:55 Mostly Cloudy 68 19.9 64 17.9 88 88 SSE 12 19 29.83 1010 10 16.09344 0 0
11:15 pm 23:15 Mostly Cloudy with Light Thunderstorms 68 19.8 65 18.1 90 90 SSE 15 24 29.83 1010 10 16.09344 0 0
11:35 pm 23:35 Mostly Cloudy 68 20 65 18.3 90 90 S 13 20 29.83 1010 10 16.09344 0 0
11:55 pm 23:55 Mostly Cloudy with Light Rain 69 20.5 64 17.8 85 85 SSE 14 22 29.83 1010 10 16.09344 0 0

Powered by AerisWeather